weather.gov     
National Weather Service

Regional Weather Roundup
NWS Homepage
This page is being discontinued on March 12, 2014.
The same data is available at this site. Please update your bookmarks.
Thank you, and we apologize for the inconvenience.
Please send an email to SR-SRH.Webmaster@noaa.gov with any concerns.


Current Version
Previous Version:    01  02  03  04  05  06  07  08  09  10  11  12  13  14  15  16  17  18  19  20  21  22  23  24  25  26  27  
[Printable]
717
ASUS41 KAKQ 291910
RWRAKQ

REGIONAL WEATHER ROUNDUP
NATIONAL WEATHER SERVICE WAKEFIELD VA
300 PM EDT FRI AUG 29 2014

Note: "fair" indicates few or no clouds below 12,000 feet with no
significant weather and/or obstructions to visibility. * = Denotes
station may not report precipitation (e.g., rain,snow,etc.),
thunder or fog.

VAZ042-051-052>054-056-292000-
NORTHERN VIRGINIA

CITY           SKY/WX    TMP DP  RH WIND       PRES   REMARKS
WASH NATIONAL  MOSUNNY   81  51  35 CALM      30.16F
DULLES         MOSUNNY   76  55  48 S3        30.16F
FORT BELVOIR   SUNNY     78  56  45 SE6       30.16F
QUANTICO       MOSUNNY   78  54  43 CALM      30.16F
FREDERICKSBRG* SUNNY     81  58  44 E5        30.15F
STAFFORD*      SUNNY     77  58  51 CALM      30.20F
WARRENTON      SUNNY     80  63  55 CALM      30.16F
CULPEPER*      SUNNY    N/A N/A N/A SE3       30.16F
MANASSAS*      NOT AVBL
LEESBURG*      SUNNY     81  57  44 CALM      30.18S
WINCHESTER     SUNNY     77  54  44 E5        30.17F
$$

VAZ048-049-060>072-079>083-292000-
CENTRAL AND SOUTH CENTRAL VIRGINIA...AND NORTH CENTRAL NORTH CAROLINA

CITY           SKY/WX    TMP DP  RH WIND       PRES   REMARKS
RICHMOND       PTSUNNY   83  58  42 SE6       30.14F
CHESTERFIELD*  CLEAR     82  55  39 S6        30.16F
PETERSBURG*    MOSUNNY   82  59  45 CALM      30.15F
HANOVER        SUNNY     84  57  39 VRB3      30.16F
TAPPAHANNOCK*  SUNNY     82  50  31 NE5       30.16F
CHARLOTTSVILLE SUNNY     78  58  49 VRB7      30.16F
ORANGE*        SUNNY     79  55  44 CALM      30.17F
LOUISA*        SUNNY     79  59  50 E3        30.15F
FARMVILLE*     SUNNY     82  61  47 NE7       30.13F
SOUTH HILL*    PTSUNNY   82  70  65 CALM      30.19F
ROANOKE RAPIDS CLOUDY    79  68  69 E6        30.13F
RALEIGH        CLOUDY    82  70  66 NE7       30.13F
$$

VAZ088>098-292000-
SOUTHEAST VIRGINIA

CITY           SKY/WX    TMP DP  RH WIND       PRES   REMARKS
NORFOLK        SUNNY     79  62  56 NE10      30.15F
VIRGINIA BEACH MOSUNNY   79  63  57 NE12      30.14F
NORFOLK NAVAL  MOSUNNY   79  63  57 E7        30.17F
WEST POINT*    SUNNY     83  56  39 CALM      30.17F
NEWPORT NEWS   SUNNY     83  64  52 NE8       30.15F
LANGLEY AFB    SUNNY     79  66  64 NE10      30.15F
FORT EUSTIS    SUNNY     82  58  43 NE7       30.14F
WILLIAMSBURG*  MOSUNNY   88  64  45 E5        30.15F
FRANKLIN*      PTSUNNY   81  64  57 NE7       30.14F
WAKEFIELD      PTSUNNY   82  63  52 NE6       30.14F
$$

VAZ020-022-025-037-045-292000-
WESTERN AND SOUTHWEST VIRGINIA

CITY           SKY/WX    TMP DP  RH WIND       PRES   REMARKS
STAUNTON*      SUNNY     79  56  46 S7        30.18F
HOT SPRINGS VA SUNNY     67  56  66 S7        30.28F
LYNCHBURG      MOSUNNY   76  60  57 E5        30.18F
DANVILLE       CLOUDY    81  67  62 VRB5      30.15S
MARTINSVILLE   PTSUNNY   84  66  55 E5        30.18F
ROANOKE        MOSUNNY   77  59  53 VRB6      30.19F
BLACKSBURG     SUNNY     79  66  65 SE6       30.21F
DUBLIN*        SUNNY     79  64  59 CALM      30.20F
MARION*        SUNNY    N/A N/A N/A E3        30.22F
HILLSVILLE*    PTSUNNY   77  66  68 SE5       30.22S
RICHLANDS*     CLEAR     86  67  52 SW5       30.18F
WISE*          MOSUNNY   86  63  45 S7        30.18F
ABINGDON*      MOSUNNY   87  66  50 CALM      30.15F
$$

MDZ021>025-VAZ099-100-292000-
SOUTHERN MARYLAND AND THE DELMARVA PENINSULA

CITY           SKY/WX    TMP DP  RH WIND       PRES   REMARKS
PATUXENT RIVER PTSUNNY   78  50  37 NE10      30.16F
BAY BRIDGE APT   N/A     73  52  46 NW7       30.17F
LEONARDTOWN    SUNNY     77  52  41 CALM      30.17F
DOVER          SUNNY     77  55  46 E6        30.17F
GEORGETOWN     MOSUNNY   77  57  50 VRB7      30.18S
EASTON         SUNNY     81  52  36 CALM      30.20F
CAMBRIDGE      SUNNY     79  52  38 NE5       30.16F
SALISBURY      SUNNY     82  54  37 N7        30.15F
OCEAN CITY     SUNNY     76  60  57 NE14      30.17S
WALLOPS ISLAND SUNNY     80  63  55 E10       30.16F
ACCOMACK*      NOT AVBL
$$

NCZ012>017-030>032-292000-
EASTERN NORTH CAROLINA

CITY           SKY/WX    TMP DP  RH WIND       PRES   REMARKS
ELIZABETH CITY CLOUDY    81  66  60 E12       30.15S
AHOSKIE*       MOSUNNY   80  68  67 NE3       30.13F
EDENTON*       MOSUNNY   82  68  62 E12G17    30.14S
CURRITUCK*     SUNNY     80  62  54 NE10      30.15F
KILL DEVIL HLS CLOUDY    79  65  62 NE9       30.13S
MANTEO         PTSUNNY   78  65  65 NE12      30.14S
CAPE HATTERAS  MOSUNNY   82  72  71 E6        30.11S
GOLDSBORO      MOSUNNY   86  78  77 E6        30.09F HX  98
WASHINGTON     PTSUNNY   81  72  73 NE9       30.12S
GREENVILLE     CLOUDY    82  73  74 E8        30.13S
NEW BERN       CLOUDY    87  72  60 E3        30.11S
WILMINGTON     SUNNY     87  70  56 E8        30.09F
$$

VAZ048-292000-
ELSEWHERE

CITY           SKY/WX    TMP DP  RH WIND       PRES   REMARKS
HARRISBURG PA  PTSUNNY   77  51  40 CALM      30.17F
BALTIMORE      PTSUNNY   76  49  38 SE3       30.17F
ANNAPOLIS      SUNNY     75  49  39 VRB6      30.17F
ANDREWS AFB    SUNNY     78  56  46 VRB2      30.16F
WILMINGTON DE  PTSUNNY   75  51  43 VRB3      30.18F
PHILADELPHIA   PTSUNNY   80  48  32 SE7       30.16F
WILDWOOD NJ*   CLOUDY    73  55  53 E7        30.19S
ATLANTIC CITY  PTSUNNY   73  58  59 VRB5      30.18F
HENDERSON NC   CLOUDY    78  67  67 E7        30.15F
GREENSBORO     CLOUDY    79  68  69 NE6       30.15S
ROCKY MOUNT    CLOUDY    82  72  71 NE7       30.13S
FAYETTEVILLE   PTSUNNY   92  66  42 E6        30.08F
CHARLOTTE      PTSUNNY   86  68  54 E6        30.12F
$$

VAZ100-292000-
MARINE

STATION/POSITION TIME  TEMP    WIND        PRES    WAVE   SWELL
                       AIR SEA DIR/SP/G            HT/PER HT/PER
                 (UTC) (F)     (DEG/KT/KT) (MB)    (FT/S) (FT/S)
44066 TX TWR #4  1900   69 73   40/  8/  8 1022.1R   4/ 9   3/ 9
CAPE MAY NJ      1900   74 79  330/  6/  9 1021.4S
LEWES DE         1900   71 75  360/  3/  5 1021.8S
15NM E FENWICK I 1900   71 74              1021.4F   3/10
OCEAN-CITY-INLET 1900   73 76   40/  6/ 11 1021.4S
WACHAPREAGUE VA  1900   74 80  130/  5/  8 1021.4F
THOMAS POINT MD  1900   72 78   40/  5/  6 1022.6F
GOOSES REEF MD   1900   72      40/  4/  6 1022.3F
COVE POINT MD    1900   71      10/  6/  8 1021.7S
SOLOMONS ISLAND  1900      81                N/A
BISHOPS HEAD MD  1900   74 80  250/  5/  6 1021.1F
PINEY POINT MD   1900          190/  8/  9   N/A
POTOMAC MD       1900   74      80/  6/  8 1021.0F
CAMBRIDGE MD     1900   74 78  340/  3/  6 1021.3F
LEWISETTA VA     1900   73 78  120/  4/  6 1021.3S
RAPPAHANNOCK LGT 1900           10/ 10/ 11 1021.8F
STINGRAY PT      1900   74      40/  8/ 10   N/A
YORK RVR RNG VA  1900   75      70/  6/  7 1021.0S
YORKTOWN VA      1900   75 80   90/  8/  8 1021.0F
JAMESTOWN VA     1900   76     150/ 10/ 12   N/A
DOMINION TERM VA 1900   77     110/  4/  9 1021.4S
KIPTOPEKE VA     1900      81  100/  5/ 12   N/A
CHES BAY BRIDGE  1900   74 78   60/ 10/ 12 1020.9S
CAPE HENRY VA    1900   74      60/ 10/ 12 1020.3S
CHESAPEAKE LGHT  1800   72      70/ 11/ 12 1022.1S
WILLOUBY STN VA  1900   74      80/  9/ 10 1020.0F
S CRANEY ISL VA  1900           10/  9/ 11 1020.7F
CAPE HENRY BUOY  1900      77                N/A     3/ 8
1ST LANDING BUOY 1900   75      80/ 10/ 12 1021.1F
CAPE CHARLES BUO 1900      77                N/A     3/ 9   2/ 9
OFFSHORE WE BUOY 1900      76                N/A     3/ 9   3/ 9
64NM E OF VA BCH 1900   76 76   60/  8/ 10 1020.7F   4/ 8   3/ 8
DUCK PIER NC     1900   76 78   60/ 15/ 16 1020.1S
44056 DUCK FRF   1900                        N/A     3/ 4
OREGON INLET NC  1900   77 79   40/ 14/ 17 1020.2S
HATTERAS NC      1900   79 81   40/ 12/ 14 1020.1F
DIAMOND SHLS NC  1900   80      CALM  /  2 1019.5F   3/ 8   3/ 8
CAPE LOOKOUT NC  1800   84     220/  6/  8 1019.5R
$$




U.S. Dept. of Commerce
NOAA National Weather Service
1325 East West Highway
Silver Spring, MD 20910
E-mail: w-nws.webmaster@noaa.gov
Page last modified: May 16, 2007
NATIONAL WEATHER SERVICE: for Safety, for Work, for Fun - FOR LIFE